Location: AstroGeek's Observatory
(41.9520°N, 70.9880°W)
Time: 02:07:50
(UTC-04:00)

ISS - All Passes

Search period start: 30 July 2015 00:00
Search period end: 09 August 2015 00:00
Orbit: 401 x 403 km, 51.6° (Epoch: 29 July)

Date Brightness Start Highest point End Pass type
(mag) Time Alt. Az. Time Alt. Az. Time Alt. Az.
30 Jul - 00:51:18 10° NW 00:53:26 16° N 00:55:34 10° NNE visible
30 Jul - 02:28:27 10° NNW 02:30:47 18° NNE 02:33:09 10° ENE visible
30 Jul - 04:04:29 10° NW 04:07:44 60° NNE 04:10:58 10° ESE visible
30 Jul - 05:41:44 10° W 05:43:53 16° SW 05:45:57 10° S daylight
30 Jul - 20:45:27 10° SSE 20:47:13 14° SE 20:49:04 10° E visible
30 Jul - 22:20:05 10° WSW 22:23:19 68° NNW 22:26:35 10° NE visible
30 Jul - 23:57:48 10° WNW 00:00:13 19° NNW 00:02:38 10° NE visible
31 Jul - 01:35:28 10° NNW 01:37:33 16° N 01:39:39 10° NE visible
31 Jul - 03:11:38 10° NW 03:14:41 36° NNE 03:17:45 10° E visible
31 Jul - 04:48:09 10° WNW 04:51:05 30° SW 04:53:59 10° SSE visible
31 Jul - 21:27:09 10° SW 21:30:22 63° SE 21:33:36 10° ENE visible
31 Jul - 23:04:18 10° WNW 23:07:02 24° NNW 23:09:47 10° NE visible
01 Aug - 00:42:20 10° NW 00:44:18 15° N 00:46:17 10° NE visible
01 Aug - 02:18:48 10° NW 02:21:34 25° NNE 02:24:21 10° ENE visible
01 Aug - 03:54:59 10° WNW 03:58:13 60° SW 04:01:26 10° SE visible
01 Aug - 20:34:34 10° SSW 20:37:31 32° SE 20:40:28 10° ENE visible
01 Aug - 22:10:53 10° W 22:13:55 34° NNW 22:16:57 10° NE visible
01 Aug - 23:48:59 10° NW 23:51:03 16° N 23:53:08 10° NNE visible
02 Aug - 01:25:58 10° NW 01:28:24 19° NNE 01:30:51 10° ENE visible
02 Aug - 03:02:01 10° NW 03:05:17 71° NE 03:08:32 10° ESE visible
02 Aug - 04:39:37 10° W 04:41:22 13° SW 04:43:01 10° SSW visible
02 Aug - 19:42:33 10° S 19:44:42 17° SE 19:46:56 10° E daylight
02 Aug - 21:17:39 10° WSW 21:20:52 57° NNW 21:24:06 10° NE visible
02 Aug - 22:55:30 10° WNW 22:57:50 18° NNW 23:00:09 10° NNE visible
03 Aug - 00:33:02 10° NNW 00:35:11 16° N 00:37:20 10° NE visible
03 Aug - 02:09:08 10° NW 02:12:15 40° NNE 02:15:22 10° E night (unlit)
03 Aug - 03:45:49 10° WNW 03:48:35 25° SW 03:51:19 10° SSE night (unlit)
03 Aug - 20:24:39 10° SW 20:27:54 76° SE 20:31:10 10° ENE visible
03 Aug - 22:01:59 10° WNW 22:04:38 22° NNW 22:07:17 10° NE visible
03 Aug - 23:39:57 10° NW 23:41:56 15° N 23:43:55 10° NE visible
04 Aug - 01:16:19 10° NW 01:19:10 27° NNE 01:22:01 10° E visible
04 Aug - 02:52:34 10° WNW 02:55:44 49° SW 02:58:54 10° SE night (unlit)
04 Aug - 19:31:59 10° SSW 19:35:01 38° SE 19:38:05 10° ENE daylight
04 Aug - 21:08:33 10° W 21:11:30 31° NNW 21:14:28 10° NE visible
04 Aug - 22:46:39 10° NW 22:48:41 15° N 22:50:42 10° NE visible
05 Aug - 00:23:29 10° NW 00:26:00 20° NNE 00:28:32 10° ENE visible
05 Aug - 01:59:33 10° NW 02:02:50 84° NE 02:06:05 10° ESE night (unlit)
05 Aug - 03:37:45 10° WSW 03:38:51 11° SW 03:39:51 10° SSW night (unlit)
05 Aug - 18:39:46 10° S 18:42:12 20° SE 18:44:42 10° E daylight
05 Aug - 20:15:16 10° WSW 20:18:26 49° NNW 20:21:37 10° NE daylight
05 Aug - 21:53:12 10° NW 21:55:27 17° N 21:57:41 10° NNE visible
05 Aug - 23:30:36 10° NNW 23:32:48 17° N 23:35:02 10° NE visible
06 Aug - 01:06:40 10° NW 01:09:49 47° NNE 01:13:00 10° ESE visible
06 Aug - 02:43:31 10° W 02:46:05 21° SW 02:48:37 10° S night (unlit)
06 Aug - 17:48:53 10° SE 17:49:26 10° SE 17:50:09 10° ESE daylight
06 Aug - 19:22:12 10° SW 19:25:27 89° WNW 19:28:43 10° NE daylight
06 Aug - 20:59:41 10° WNW 21:02:15 21° NNW 21:04:48 10° NE visible
06 Aug - 22:37:33 10° NW 22:39:34 15° N 22:41:35 10° NE visible
07 Aug - 00:13:50 10° NW 00:16:46 30° NNE 00:19:42 10° E visible
07 Aug - 01:50:10 10° WNW 01:53:16 41° SW 01:56:20 10° SSE night (unlit)
07 Aug - 18:29:25 10° SW 18:32:33 46° SE 18:35:41 10° ENE daylight
07 Aug - 20:06:13 10° W 20:09:06 28° NNW 20:11:59 10° NE daylight
07 Aug - 21:44:20 10° NW 21:46:19 15° N 21:48:18 10° NE visible
07 Aug - 23:21:01 10° NW 23:23:37 22° NNE 23:26:14 10° ENE visible
08 Aug - 00:57:06 10° WNW 01:00:22 81° SW 01:03:38 10° SE night (unlit)
08 Aug - 17:37:03 10° S 17:39:42 24° SE 17:42:25 10° E daylight
08 Aug - 19:12:53 10° WSW 19:16:01 42° NNW 19:19:09 10° NE daylight
08 Aug - 20:50:54 10° NW 20:53:05 16° N 20:55:15 10° NNE visible
08 Aug - 22:28:09 10° NNW 22:30:25 17° NNE 22:32:44 10° ENE visible
